TimeMDT,TemperatureF,Dew PointF,Humidity,Sea Level PressureIn,VisibilityMPH,Wind Direction,Wind SpeedMPH,Gust SpeedMPH,PrecipitationIn,Events,Conditions,WindDirDegrees,DateUTC
12:12 AM,37.4,10.4,33,30.40,-9999.0,West,25.3,-,N/A,,Clear,260,2013-05-18 06:12:00
12:32 AM,37.4,10.4,33,30.39,-9999.0,West,28.8,-,N/A,,Clear,260,2013-05-18 06:32:00
12:52 AM,37.4,12.2,36,30.39,-9999.0,West,23.0,-,N/A,,Clear,260,2013-05-18 06:52:00
1:12 AM,35.6,12.2,38,30.39,-9999.0,West,20.7,-,N/A,,Clear,260,2013-05-18 07:12:00
1:32 AM,35.6,12.2,38,30.39,-9999.0,West,24.2,-,N/A,,Clear,270,2013-05-18 07:32:00
1:52 AM,35.6,14.0,41,30.38,-9999.0,West,25.3,-,N/A,,Clear,270,2013-05-18 07:52:00
2:12 AM,33.8,14.0,44,30.37,-9999.0,West,25.3,-,N/A,,Clear,260,2013-05-18 08:12:00
2:32 AM,33.8,14.0,44,30.37,-9999.0,West,21.9,-,N/A,,Clear,270,2013-05-18 08:32:00
2:52 AM,33.8,14.0,44,30.38,-9999.0,West,18.4,-,N/A,,Clear,270,2013-05-18 08:52:00
3:12 AM,33.8,14.0,44,30.37,-9999.0,West,19.6,-,N/A,,Clear,270,2013-05-18 09:12:00
3:32 AM,33.8,14.0,44,30.36,-9999.0,West,24.2,-,N/A,,Mostly Cloudy,260,2013-05-18 09:32:00
3:52 AM,33.8,14.0,44,30.36,-9999.0,West,23.0,-,N/A,,Overcast,270,2013-05-18 09:52:00
4:12 AM,33.8,14.0,44,30.36,-9999.0,West,24.2,-,N/A,,Mostly Cloudy,270,2013-05-18 10:12:00
4:32 AM,33.8,14.0,44,30.36,-9999.0,West,17.3,24.2,N/A,,Mostly Cloudy,270,2013-05-18 10:32:00
4:52 AM,33.8,15.8,48,30.36,-9999.0,West,21.9,25.3,N/A,,Scattered Clouds,270,2013-05-18 10:52:00
5:12 AM,33.8,15.8,48,30.36,-9999.0,West,23.0,-,N/A,,Scattered Clouds,280,2013-05-18 11:12:00
5:32 AM,32.0,17.6,55,30.37,-9999.0,West,26.5,-,N/A,,Mostly Cloudy,260,2013-05-18 11:32:00
5:52 AM,33.8,15.8,48,30.37,-9999.0,WSW,19.6,-,N/A,,Overcast,250,2013-05-18 11:52:00
6:12 AM,32.0,17.6,55,30.37,-9999.0,West,20.7,-,N/A,,Scattered Clouds,260,2013-05-18 12:12:00
6:32 AM,33.8,17.6,52,30.37,-9999.0,West,19.6,-,N/A,,Clear,260,2013-05-18 12:32:00
6:52 AM,33.8,17.6,52,30.37,-9999.0,West,20.7,-,N/A,,Scattered Clouds,260,2013-05-18 12:52:00
7:12 AM,33.8,17.6,52,30.36,-9999.0,West,20.7,-,N/A,,Mostly Cloudy,260,2013-05-18 13:12:00
7:32 AM,33.8,17.6,52,30.37,-9999.0,West,21.9,-,N/A,,Scattered Clouds,260,2013-05-18 13:32:00
7:52 AM,33.8,19.4,56,30.38,-9999.0,WSW,17.3,-,N/A,,Mostly Cloudy,240,2013-05-18 13:52:00
8:12 AM,35.6,19.4,52,30.37,-9999.0,West,21.9,27.6,N/A,,Overcast,260,2013-05-18 14:12:00
8:32 AM,35.6,19.4,52,30.36,-9999.0,WSW,23.0,32.2,N/A,,Overcast,250,2013-05-18 14:32:00
8:52 AM,33.8,19.4,56,30.37,-9999.0,WSW,27.6,36.8,N/A,,Overcast,240,2013-05-18 14:52:00
9:12 AM,35.6,21.2,56,30.37,-9999.0,WSW,24.2,34.5,N/A,,Mostly Cloudy,240,2013-05-18 15:12:00
9:32 AM,35.6,21.2,56,30.37,-9999.0,West,31.1,38.0,N/A,,Scattered Clouds,260,2013-05-18 15:32:00
9:52 AM,33.8,23.0,65,30.37,-9999.0,West,27.6,-,N/A,,Clear,270,2013-05-18 15:52:00
10:12 AM,35.6,23.0,60,30.37,-9999.0,WSW,18.4,27.6,N/A,,Clear,250,2013-05-18 16:12:00
10:32 AM,35.6,23.0,60,30.37,-9999.0,West,16.1,24.2,N/A,,Clear,260,2013-05-18 16:32:00
10:52 AM,35.6,23.0,60,30.37,-9999.0,WSW,13.8,-,N/A,,Scattered Clouds,250,2013-05-18 16:52:00
11:12 AM,37.4,24.8,60,30.36,-9999.0,WSW,15.0,21.9,N/A,,Scattered Clouds,240,2013-05-18 17:12:00
11:32 AM,39.2,21.2,49,30.35,-9999.0,WSW,18.4,25.3,N/A,,Scattered Clouds,250,2013-05-18 17:32:00
11:52 AM,37.4,21.2,52,30.35,-9999.0,West,16.1,31.1,N/A,,Scattered Clouds,260,2013-05-18 17:52:00
12:12 PM,41.0,21.2,45,30.34,-9999.0,WSW,23.0,29.9,N/A,,Mostly Cloudy,250,2013-05-18 18:12:00
12:32 PM,42.8,21.2,42,30.34,-9999.0,SW,20.7,27.6,N/A,,Scattered Clouds,220,2013-05-18 18:32:00
1:12 PM,42.8,21.2,42,30.32,-9999.0,West,19.6,29.9,N/A,,Mostly Cloudy,270,2013-05-18 19:12:00
1:32 PM,42.8,21.2,42,30.32,-9999.0,SW,23.0,31.1,N/A,,Mostly Cloudy,230,2013-05-18 19:32:00
1:52 PM,42.8,21.2,42,30.31,-9999.0,SW,15.0,29.9,N/A,,Overcast,220,2013-05-18 19:52:00
2:12 PM,42.8,19.4,39,30.31,-9999.0,SW,20.7,27.6,N/A,,Overcast,230,2013-05-18 20:12:00
2:32 PM,41.0,21.2,45,30.30,-9999.0,SSW,19.6,27.6,N/A,,Overcast,210,2013-05-18 20:32:00
2:52 PM,39.2,19.4,45,30.31,-9999.0,WSW,31.1,40.3,N/A,,Overcast,240,2013-05-18 20:52:00
3:12 PM,35.6,26.6,70,30.33,-9999.0,SW,10.4,27.6,N/A,,Overcast,220,2013-05-18 21:12:00
3:32 PM,37.4,23.0,56,30.31,-9999.0,West,16.1,21.9,N/A,,Overcast,260,2013-05-18 21:32:00
4:12 PM,37.4,23.0,56,30.31,-9999.0,WNW,29.9,40.3,N/A,Thunderstorm,Thunderstorm,300,2013-05-18 22:12:00
4:32 PM,32.0,28.4,87,30.33,-9999.0,WNW,12.7,31.1,N/A,Thunderstorm,Thunderstorm,300,2013-05-18 22:32:00
4:52 PM,32.0,26.6,80,30.32,-9999.0,West,18.4,28.8,N/A,,Overcast,270,2013-05-18 22:52:00
5:12 PM,32.0,28.4,87,30.30,-9999.0,WSW,18.4,-,N/A,Thunderstorm,Thunderstorm,240,2013-05-18 23:12:00
5:32 PM,33.8,28.4,81,30.30,-9999.0,WSW,24.2,28.8,N/A,Thunderstorm,Thunderstorm,250,2013-05-18 23:32:00
5:52 PM,33.8,26.6,75,30.30,-9999.0,WSW,21.9,28.8,N/A,Thunderstorm,Thunderstorm,240,2013-05-18 23:52:00
6:12 PM,35.6,26.6,70,30.29,-9999.0,SW,21.9,29.9,N/A,Thunderstorm,Thunderstorm,230,2013-05-19 00:12:00
6:32 PM,32.0,28.4,87,30.28,-9999.0,West,43.7,51.8,N/A,,Overcast,270,2013-05-19 00:32:00
6:52 PM,30.2,28.4,93,30.29,-9999.0,West,40.3,55.2,N/A,,Overcast,270,2013-05-19 00:52:00
7:12 PM,30.2,28.4,93,30.29,-9999.0,North,-9999.0,-,N/A,,Overcast,0,2013-05-19 01:12:00
7:32 PM,28.4,28.4,100,30.29,-9999.0,North,-9999.0,-,N/A,,Overcast,0,2013-05-19 01:32:00
7:52 PM,28.4,28.4,100,30.29,-9999.0,North,-9999.0,-,N/A,,Overcast,0,2013-05-19 01:52:00
8:12 PM,28.4,28.4,100,30.29,-9999.0,North,-9999.0,-,N/A,,Overcast,0,2013-05-19 02:12:00
8:32 PM,28.4,28.4,100,30.27,-9999.0,North,-9999.0,-,N/A,,Unknown,0,2013-05-19 02:32:00
8:52 PM,28.4,26.6,93,30.26,-9999.0,North,-9999.0,-,N/A,,Unknown,0,2013-05-19 02:52:00
9:12 PM,28.4,26.6,93,30.25,-9999.0,North,-9999.0,-,N/A,,Unknown,0,2013-05-19 03:12:00
9:32 PM,28.4,28.4,100,30.26,-9999.0,North,-9999.0,-,N/A,,Mostly Cloudy,0,2013-05-19 03:32:00
9:52 PM,28.4,28.4,100,30.24,-9999.0,North,-9999.0,-,N/A,,Overcast,0,2013-05-19 03:52:00
10:12 PM,28.4,26.6,93,30.24,-9999.0,North,-9999.0,-,N/A,,Overcast,0,2013-05-19 04:12:00
10:32 PM,28.4,26.6,93,30.24,-9999.0,North,-9999.0,-,N/A,,Mostly Cloudy,0,2013-05-19 04:32:00
10:52 PM,28.4,26.6,93,30.24,-9999.0,North,-9999.0,-,N/A,,Overcast,0,2013-05-19 04:52:00
11:12 PM,28.4,26.6,93,30.25,-9999.0,North,-9999.0,-,N/A,,Overcast,0,2013-05-19 05:12:00
11:32 PM,28.4,26.6,93,30.25,-9999.0,North,-9999.0,-,N/A,,Overcast,0,2013-05-19 05:32:00
11:52 PM,28.4,26.6,93,30.24,-9999.0,North,-9999.0,-,N/A,,Overcast,0,2013-05-19 05:52:00